,,,PA_Meas_PMT16A,,PR_Meas_QMR101_102,,RH_Meas_QMH101,,SR_Meas_QMS101,,TA_Meas_QMH101,,GenWind,,GenWind,
date,time,status,PA,status,PR,status,RH,status,SR,status,TA,status,DirAvg,status,SpdAvg,
2010-08-12, 00:00:04,VALID,1006.68,VALID,0,INVALID,114.418,VALID,0,VALID,23.6434,VALID,36,VALID,0.0335938,
2010-08-12, 00:01:04,VALID,1006.7,VALID,0,INVALID,114.502,VALID,0,VALID,23.6239,VALID,36,VALID,0.173438,
2010-08-12, 00:02:04,VALID,1006.68,VALID,0,INVALID,114.479,VALID,0,VALID,23.6044,VALID,36,VALID,0.333203,
2010-08-12, 00:03:04,VALID,1006.69,VALID,0,INVALID,114.448,VALID,0,VALID,23.6044,VALID,36,VALID,0.325781,
2010-08-12, 00:04:04,VALID,1006.7,VALID,0,INVALID,114.525,VALID,0,VALID,23.585,VALID,36,VALID,0.215234,
2010-08-12, 00:05:04,VALID,1006.71,VALID,0,INVALID,114.601,VALID,0,VALID,23.5655,VALID,36,VALID,0.0839844,
2010-08-12, 00:06:04,VALID,1006.69,VALID,0,INVALID,114.685,VALID,0,VALID,23.5248,VALID,36,VALID,0,
2010-08-12, 00:07:04,VALID,1006.69,VALID,0,INVALID,114.7,VALID,0,VALID,23.5266,VALID,36,VALID,0,
2010-08-12, 00:08:04,VALID,1006.73,VALID,0,INVALID,114.647,VALID,0,VALID,23.5071,VALID,36,VALID,0,
2010-08-12, 00:09:04,VALID,1006.69,VALID,0,INVALID,114.586,VALID,0.100563,VALID,23.5266,VALID,36,VALID,0,
2010-08-12, 00:10:04,VALID,1006.68,VALID,0,INVALID,114.479,VALID,0,VALID,23.546,VALID,36,VALID,0,
2010-08-12, 00:11:04,VALID,1006.66,VALID,0,INVALID,114.395,VALID,0,VALID,23.5443,VALID,36,VALID,0.0117188,
2010-08-12, 00:12:04,VALID,1006.67,VALID,0,INVALID,114.441,VALID,0,VALID,23.5443,VALID,36,VALID,0.315625,
2010-08-12, 00:13:04,VALID,1006.69,VALID,0,INVALID,114.448,VALID,0.100563,VALID,23.5266,VALID,36,VALID,0.312109,
2010-08-12, 00:14:04,VALID,1006.69,VALID,0,INVALID,114.517,VALID,0.100563,VALID,23.4859,VALID,36,VALID,0.382031,
2010-08-12, 00:15:04,VALID,1006.68,VALID,0,INVALID,114.548,VALID,0.100563,VALID,23.4877,VALID,36,VALID,0.109766,
2010-08-12, 00:16:04,VALID,1006.68,VALID,0,INVALID,114.532,VALID,0.100563,VALID,23.447,VALID,36,VALID,0.303906,
2010-08-12, 00:17:04,VALID,1006.67,VALID,0,INVALID,114.548,VALID,0.100563,VALID,23.4487,VALID,36,VALID,0.294141,
2010-08-12, 00:18:04,VALID,1006.66,VALID,0,INVALID,114.586,VALID,0.100563,VALID,23.4098,VALID,36,VALID,0,
2010-08-12, 00:19:04,VALID,1006.68,VALID,0,INVALID,114.548,VALID,0.100563,VALID,23.3904,VALID,36,VALID,0.381641,
2010-08-12, 00:20:04,VALID,1006.68,VALID,0,INVALID,114.517,VALID,0.100563,VALID,23.4098,VALID,36,VALID,0.230469,
2010-08-12, 00:21:04,VALID,1006.65,VALID,0,INVALID,114.487,VALID,0.100563,VALID,23.3709,VALID,35,VALID,0.518359,
2010-08-12, 00:22:04,VALID,1006.71,VALID,0,INVALID,114.349,VALID,0.100563,VALID,23.4098,VALID,34,VALID,0.369531,
2010-08-12, 00:23:04,VALID,1006.65,VALID,0,INVALID,114.281,VALID,0.100563,VALID,23.4293,VALID,34,VALID,0.124219,
2010-08-12, 00:24:04,VALID,1006.65,VALID,0,INVALID,114.242,VALID,0.100563,VALID,23.4487,VALID,34,VALID,0.224609,
2010-08-12, 00:25:04,VALID,1006.68,VALID,0,INVALID,114.296,VALID,0.100563,VALID,23.4487,VALID,34,VALID,0,
2010-08-12, 00:26:04,VALID,1006.66,VALID,0,INVALID,114.349,VALID,0,VALID,23.4293,VALID,34,VALID,0,
2010-08-12, 00:27:04,VALID,1006.64,VALID,0,INVALID,114.357,VALID,0.100563,VALID,23.3886,VALID,34,VALID,0.0257812,
2010-08-12, 00:28:04,VALID,1006.67,VALID,0,INVALID,114.342,VALID,0.100563,VALID,23.3886,VALID,34,VALID,0,
2010-08-12, 00:29:04,VALID,1006.67,VALID,0,INVALID,114.258,VALID,0.100563,VALID,23.4293,VALID,34,VALID,0.0191406,
2010-08-12, 00:30:04,VALID,1006.65,VALID,0,INVALID,114.235,VALID,0,VALID,23.47,VALID,34,VALID,0.00117188,
2010-08-12, 00:31:04,VALID,1006.66,VALID,0,INVALID,114.143,VALID,0.100563,VALID,23.4682,VALID,34,VALID,0.215234,
2010-08-12, 00:32:04,VALID,1006.67,VALID,0,INVALID,114.105,VALID,0,VALID,23.4682,VALID,34,VALID,0.466406,
2010-08-12, 00:33:04,VALID,1006.65,VALID,0,INVALID,114.029,VALID,0,VALID,23.5071,VALID,34,VALID,0.248047,
2010-08-12, 00:34:04,VALID,1006.64,VALID,0,INVALID,113.991,VALID,0.100563,VALID,23.5071,VALID,34,VALID,0.0269531,
2010-08-12, 00:35:04,VALID,1006.64,VALID,0,INVALID,113.998,VALID,0,VALID,23.5071,VALID,34,VALID,0.250391,
2010-08-12, 00:36:04,VALID,1006.6,VALID,0,INVALID,113.975,VALID,0.100563,VALID,23.5266,VALID,34,VALID,0.179297,
2010-08-12, 00:37:04,VALID,1006.59,VALID,0,INVALID,113.975,VALID,0.100563,VALID,23.5248,VALID,34,VALID,0.117578,
2010-08-12, 00:38:04,VALID,1006.62,VALID,0,INVALID,113.922,VALID,0.100563,VALID,23.5248,VALID,62,VALID,0.401563,
2010-08-12, 00:39:04,VALID,1006.63,VALID,0,INVALID,113.869,VALID,0.100563,VALID,23.5655,VALID,62,VALID,0.466406,
2010-08-12, 00:40:04,VALID,1006.63,VALID,0,INVALID,113.853,VALID,0.100563,VALID,23.585,VALID,62,VALID,0.367578,
2010-08-12, 00:41:04,VALID,1006.64,VALID,0,INVALID,113.884,VALID,0.100563,VALID,23.585,VALID,62,VALID,0.310937,
2010-08-12, 00:42:04,VALID,1006.65,VALID,0,INVALID,113.953,VALID,0.100563,VALID,23.5655,VALID,62,VALID,0,
2010-08-12, 00:43:04,VALID,1006.64,VALID,0,INVALID,114.014,VALID,0,VALID,23.546,VALID,62,VALID,0,
2010-08-12, 00:44:04,VALID,1006.66,VALID,0,INVALID,114.044,VALID,0.100563,VALID,23.546,VALID,62,VALID,0,
2010-08-12, 00:45:04,VALID,1006.66,VALID,0,INVALID,114.082,VALID,0,VALID,23.546,VALID,62,VALID,0,
2010-08-12, 00:46:04,VALID,1006.7,VALID,0,INVALID,114.098,VALID,0.100563,VALID,23.5248,VALID,62,VALID,0,
2010-08-12, 00:47:04,VALID,1006.7,VALID,0,INVALID,114.242,VALID,0,VALID,23.5071,VALID,62,VALID,0,
2010-08-12, 00:48:04,VALID,1006.69,VALID,0,INVALID,114.304,VALID,0.100563,VALID,23.4877,VALID,62,VALID,0,
2010-08-12, 00:49:04,VALID,1006.67,VALID,0,INVALID,114.319,VALID,0.100563,VALID,23.4682,VALID,61,VALID,0,
2010-08-12, 00:50:04,VALID,1006.66,VALID,0,INVALID,114.281,VALID,0,VALID,23.4877,VALID,61,VALID,0,
2010-08-12, 00:51:04,VALID,1006.67,VALID,0,INVALID,114.296,VALID,0,VALID,23.447,VALID,60,VALID,0,
2010-08-12, 00:52:04,VALID,1006.66,VALID,0,INVALID,114.258,VALID,0,VALID,23.4682,VALID,60,VALID,0,
2010-08-12, 00:53:04,VALID,1006.65,VALID,0,INVALID,114.212,VALID,0.100563,VALID,23.447,VALID,60,VALID,0,
2010-08-12, 00:54:04,VALID,1006.65,VALID,0,INVALID,114.258,VALID,0.100563,VALID,23.4894,VALID,60,VALID,0,
2010-08-12, 00:55:04,VALID,1006.61,VALID,0,INVALID,114.189,VALID,0.100563,VALID,23.447,VALID,54,VALID,0,
2010-08-12, 00:56:04,VALID,1006.6,VALID,0,INVALID,114.212,VALID,0.100563,VALID,23.4487,VALID,51,VALID,0,
2010-08-12, 00:57:04,VALID,1006.61,VALID,0,INVALID,114.197,VALID,0.100563,VALID,23.4487,VALID,51,VALID,0,
2010-08-12, 00:58:04,VALID,1006.61,VALID,0,INVALID,114.212,VALID,0,VALID,23.4682,VALID,51,VALID,0,
2010-08-12, 00:59:04,VALID,1006.61,VALID,0,INVALID,114.174,VALID,0.100563,VALID,23.4682,VALID,51,VALID,0,
2010-08-12, 01:00:04,VALID,1006.63,VALID,0,INVALID,114.159,VALID,0,VALID,23.4682,VALID,51,VALID,0,
2010-08-12, 01:01:04,VALID,1006.63,VALID,0,INVALID,114.166,VALID,0.100563,VALID,23.447,VALID,51,VALID,0,
2010-08-12, 01:02:04,VALID,1006.6,VALID,0,INVALID,114.128,VALID,0.100563,VALID,23.447,VALID,51,VALID,0,
2010-08-12, 01:03:04,VALID,1006.62,VALID,0,INVALID,114.151,VALID,0,VALID,23.4894,VALID,51,VALID,0,
2010-08-12, 01:04:04,VALID,1006.61,VALID,0,INVALID,113.975,VALID,0,VALID,23.5284,VALID,91,VALID,0.490234,
2010-08-12, 01:05:04,VALID,1006.58,VALID,0,INVALID,113.975,VALID,0.100563,VALID,23.5266,VALID,73,VALID,0.0957031,
2010-08-12, 01:06:04,VALID,1006.58,VALID,0,INVALID,113.991,VALID,0.100563,VALID,23.5266,VALID,73,VALID,0.444141,
2010-08-12, 01:07:04,VALID,1006.59,VALID,0,INVALID,113.998,VALID,0,VALID,23.546,VALID,73,VALID,0.292188,
2010-08-12, 01:08:04,VALID,1006.58,VALID,0,INVALID,114.075,VALID,0,VALID,23.5266,VALID,69,VALID,0.373047,
2010-08-12, 01:09:04,VALID,1006.57,VALID,0,INVALID,114.204,VALID,0,VALID,23.4859,VALID,68,VALID,0.569922,
2010-08-12, 01:10:04,VALID,1006.59,VALID,0,INVALID,114.281,VALID,0,VALID,23.4682,VALID,67,VALID,0.0996094,
2010-08-12, 01:11:04,VALID,1006.57,VALID,0,INVALID,114.365,VALID,0,VALID,23.4682,VALID,66,VALID,0.226563,
2010-08-12, 01:12:04,VALID,1006.56,VALID,0,INVALID,114.349,VALID,0,VALID,23.4664,VALID,66,VALID,0,
2010-08-12, 01:13:04,VALID,1006.56,VALID,0,INVALID,114.365,VALID,0,VALID,23.4877,VALID,66,VALID,0,
2010-08-12, 01:14:04,VALID,1006.56,VALID,0,INVALID,114.387,VALID,0,VALID,23.4682,VALID,66,VALID,0.102344,
2010-08-12, 01:15:04,VALID,1006.54,VALID,0,INVALID,114.433,VALID,0,VALID,23.4275,VALID,66,VALID,0.303906,
2010-08-12, 01:16:04,VALID,1006.55,VALID,0,INVALID,114.41,VALID,0,VALID,23.4682,VALID,66,VALID,0.296094,
2010-08-12, 01:17:04,VALID,1006.54,VALID,0,INVALID,114.517,VALID,0,VALID,23.4293,VALID,66,VALID,0.209375,
2010-08-12, 01:18:04,VALID,1006.55,VALID,0,INVALID,114.677,VALID,0,VALID,23.4116,VALID,66,VALID,0,
2010-08-12, 01:19:04,VALID,1006.53,VALID,0,INVALID,114.731,VALID,0,VALID,23.332,VALID,66,VALID,0,
2010-08-12, 01:20:04,VALID,1006.56,VALID,0,INVALID,114.693,VALID,0,VALID,23.332,VALID,66,VALID,0.287891,
2010-08-12, 01:21:04,VALID,1006.57,VALID,0,INVALID,114.639,VALID,0,VALID,23.3727,VALID,66,VALID,0.197656,
2010-08-12, 01:22:04,VALID,1006.57,VALID,0,INVALID,114.586,VALID,0,VALID,23.3709,VALID,66,VALID,0,
2010-08-12, 01:23:04,VALID,1006.6,VALID,0,INVALID,114.555,VALID,0,VALID,23.3302,VALID,66,VALID,0.242969,
2010-08-12, 01:24:04,VALID,1006.59,VALID,0,INVALID,114.571,VALID,0,VALID,23.3514,VALID,66,VALID,0,
2010-08-12, 01:25:04,VALID,1006.59,VALID,0,INVALID,114.593,VALID,0,VALID,23.3107,VALID,66,VALID,0.0765625,
2010-08-12, 01:26:04,VALID,1006.61,VALID,0,INVALID,114.517,VALID,0,VALID,23.3125,VALID,66,VALID,0.560547,
2010-08-12, 01:27:04,VALID,1006.65,VALID,0,INVALID,114.426,VALID,0,VALID,23.3514,VALID,66,VALID,0.443359,
2010-08-12, 01:28:04,VALID,1006.63,VALID,0,INVALID,114.471,VALID,0,VALID,23.3125,VALID,66,VALID,0.489844,
2010-08-12, 01:29:04,VALID,1006.62,VALID,0,INVALID,114.365,VALID,0.100563,VALID,23.3107,VALID,66,VALID,0.417578,
2010-08-12, 01:30:04,VALID,1006.61,VALID,0,INVALID,114.189,VALID,0,VALID,23.3709,VALID,66,VALID,0.34375,
2010-08-12, 01:31:04,VALID,1006.63,VALID,0,INVALID,114.38,VALID,0,VALID,23.3107,VALID,66,VALID,0.494922,
2010-08-12, 01:32:04,VALID,1006.62,VALID,0,INVALID,114.372,VALID,0,VALID,23.2913,VALID,66,VALID,0.486328,
2010-08-12, 01:33:04,VALID,1006.63,VALID,0,INVALID,114.372,VALID,0.100563,VALID,23.3125,VALID,63,VALID,0.0851562,
2010-08-12, 01:34:04,VALID,1006.63,VALID,0,INVALID,114.387,VALID,0,VALID,23.2736,VALID,63,VALID,0,
2010-08-12, 01:35:04,VALID,1006.62,VALID,0,INVALID,114.41,VALID,0,VALID,23.2736,VALID,63,VALID,0.560156,
2010-08-12, 01:36:04,VALID,1006.64,VALID,0,INVALID,114.448,VALID,0,VALID,23.2347,VALID,63,VALID,0.494531,
2010-08-12, 01:37:04,VALID,1006.63,VALID,0,INVALID,114.471,VALID,0,VALID,23.194,VALID,63,VALID,0.383984,
2010-08-12, 01:38:04,VALID,1006.61,VALID,0,INVALID,114.426,VALID,0,VALID,23.2152,VALID,63,VALID,0.292188,
2010-08-12, 01:39:04,VALID,1006.63,VALID,0,INVALID,114.296,VALID,0,VALID,23.2347,VALID,63,VALID,0.309766,
2010-08-12, 01:40:04,VALID,1006.59,VALID,0,INVALID,114.326,VALID,0.100563,VALID,23.2152,VALID,63,VALID,0.419141,
2010-08-12, 01:41:04,VALID,1006.61,VALID,0,INVALID,114.357,VALID,0,VALID,23.1745,VALID,63,VALID,0,
2010-08-12, 01:42:04,VALID,1006.63,VALID,0,INVALID,114.204,VALID,0,VALID,23.1957,VALID,63,VALID,0,
2010-08-12, 01:43:04,VALID,1006.61,VALID,0,INVALID,114.212,VALID,0,VALID,23.1957,VALID,63,VALID,0,
2010-08-12, 01:44:04,VALID,1006.59,VALID,0,INVALID,114.159,VALID,0,VALID,23.1745,VALID,63,VALID,0,
2010-08-12, 01:45:04,VALID,1006.63,VALID,0,INVALID,114.128,VALID,0,VALID,23.1957,VALID,63,VALID,0,
2010-08-12, 01:46:04,VALID,1006.6,VALID,0,INVALID,114.075,VALID,0,VALID,23.2152,VALID,63,VALID,0,
2010-08-12, 01:47:04,VALID,1006.6,VALID,0,INVALID,113.953,VALID,0,VALID,23.2347,VALID,63,VALID,0,
2010-08-12, 01:48:04,VALID,1006.62,VALID,0,INVALID,113.93,VALID,0,VALID,23.2329,VALID,63,VALID,0,
2010-08-12, 01:49:04,VALID,1006.63,VALID,0,INVALID,113.96,VALID,0,VALID,23.2152,VALID,63,VALID,0,
2010-08-12, 01:50:04,VALID,1006.62,VALID,0,INVALID,113.876,VALID,0,VALID,23.2134,VALID,63,VALID,0,
2010-08-12, 01:51:04,VALID,1006.64,VALID,0,INVALID,113.869,VALID,0,VALID,23.194,VALID,46,VALID,0.645312,
2010-08-12, 01:52:04,VALID,1006.61,VALID,0,INVALID,113.96,VALID,0,VALID,23.1763,VALID,45,VALID,0.490234,
2010-08-12, 01:53:04,VALID,1006.6,VALID,0,INVALID,114.029,VALID,0.100563,VALID,23.1568,VALID,46,VALID,0.491016,
2010-08-12, 01:54:04,VALID,1006.61,VALID,0,INVALID,114.067,VALID,0,VALID,23.1374,VALID,46,VALID,0.457422,
2010-08-12, 01:55:04,VALID,1006.58,VALID,0,INVALID,113.953,VALID,0,VALID,23.1374,VALID,46,VALID,0.589453,
2010-08-12, 01:56:04,VALID,1006.61,VALID,0,INVALID,113.998,VALID,0,VALID,23.1391,VALID,46,VALID,0.606641,
2010-08-12, 01:57:04,VALID,1006.62,VALID,0,INVALID,114.014,VALID,0,VALID,23.079,VALID,46,VALID,0.382031,
2010-08-12, 01:58:04,VALID,1006.61,VALID,0,INVALID,113.945,VALID,0,VALID,23.0578,VALID,46,VALID,0.484375,
2010-08-12, 01:59:04,VALID,1006.61,VALID,0,INVALID,113.907,VALID,0,VALID,23.079,VALID,46,VALID,0.368359,
2010-08-12, 02:00:04,VALID,1006.59,VALID,0,INVALID,113.815,VALID,0,VALID,23.0772,VALID,46,VALID,0.364062,
2010-08-12, 02:01:04,VALID,1006.58,VALID,0,INVALID,113.716,VALID,0,VALID,23.0984,VALID,46,VALID,0.342969,
2010-08-12, 02:02:04,VALID,1006.55,VALID,0,INVALID,113.678,VALID,0,VALID,23.1179,VALID,46,VALID,0.00195313,
2010-08-12, 02:03:04,VALID,1006.52,VALID,0,INVALID,113.571,VALID,0,VALID,23.0772,VALID,46,VALID,0,
2010-08-12, 02:04:04,VALID,1006.53,VALID,0,INVALID,113.579,VALID,0,VALID,23.0967,VALID,46,VALID,0,
2010-08-12, 02:05:04,VALID,1006.52,VALID,0,INVALID,113.548,VALID,0,VALID,23.0984,VALID,46,VALID,0,
2010-08-12, 02:06:04,VALID,1006.52,VALID,0,INVALID,113.533,VALID,0,VALID,23.079,VALID,46,VALID,0,
2010-08-12, 02:07:04,VALID,1006.54,VALID,0,INVALID,113.419,VALID,0,VALID,23.0772,VALID,46,VALID,0,
2010-08-12, 02:08:04,VALID,1006.51,VALID,0,INVALID,113.426,VALID,0,VALID,23.0984,VALID,46,VALID,0,
2010-08-12, 02:09:04,VALID,1006.5,VALID,0,INVALID,113.426,VALID,0,VALID,23.0578,VALID,46,VALID,0,
2010-08-12, 02:10:04,VALID,1006.49,VALID,0,INVALID,113.441,VALID,0,VALID,23.0595,VALID,46,VALID,0,
2010-08-12, 02:11:04,VALID,1006.51,VALID,0,INVALID,113.449,VALID,0,VALID,23.0401,VALID,46,VALID,0,
2010-08-12, 02:12:04,VALID,1006.51,VALID,0,INVALID,113.518,VALID,0,VALID,23.0224,VALID,46,VALID,0,
2010-08-12, 02:13:04,VALID,1006.49,VALID,0,INVALID,113.571,VALID,0,VALID,22.941,VALID,46,VALID,0,
2010-08-12, 02:14:04,VALID,1006.49,VALID,0,INVALID,113.487,VALID,0.100563,VALID,22.9622,VALID,46,VALID,0,
2010-08-12, 02:15:04,VALID,1006.47,VALID,0,INVALID,113.457,VALID,0,VALID,22.9428,VALID,46,VALID,0,
2010-08-12, 02:16:04,VALID,1006.49,VALID,0,INVALID,113.426,VALID,0.100563,VALID,22.9428,VALID,46,VALID,0,
2010-08-12, 02:17:04,VALID,1006.48,VALID,0,INVALID,113.457,VALID,0,VALID,22.9021,VALID,46,VALID,0,
2010-08-12, 02:18:04,VALID,1006.47,VALID,0,INVALID,113.403,VALID,0,VALID,22.9233,VALID,46,VALID,0,
2010-08-12, 02:19:04,VALID,1006.46,VALID,0,INVALID,113.396,VALID,0,VALID,22.9233,VALID,46,VALID,0,
2010-08-12, 02:20:04,VALID,1006.45,VALID,0,INVALID,113.38,VALID,0,VALID,22.8844,VALID,46,VALID,0,
2010-08-12, 02:21:04,VALID,1006.42,VALID,0,INVALID,113.258,VALID,0,VALID,22.8827,VALID,46,VALID,0,
2010-08-12, 02:22:04,VALID,1006.42,VALID,0,INVALID,113.251,VALID,0,VALID,22.8827,VALID,46,VALID,0,
2010-08-12, 02:23:04,VALID,1006.43,VALID,0,INVALID,113.243,VALID,0,VALID,22.8844,VALID,46,VALID,0,
2010-08-12, 02:24:04,VALID,1006.43,VALID,0,INVALID,113.228,VALID,0,VALID,22.8844,VALID,46,VALID,0,
2010-08-12, 02:25:04,VALID,1006.41,VALID,0,INVALID,113.136,VALID,0,VALID,22.9039,VALID,46,VALID,0,
2010-08-12, 02:26:04,VALID,1006.41,VALID,0,INVALID,113.167,VALID,0,VALID,22.8632,VALID,46,VALID,0,
2010-08-12, 02:27:04,VALID,1006.4,VALID,0,INVALID,113.106,VALID,0,VALID,22.8844,VALID,46,VALID,0,
2010-08-12, 02:28:04,VALID,1006.41,VALID,0,INVALID,113.197,VALID,0,VALID,22.8649,VALID,46,VALID,0,
2010-08-12, 02:29:04,VALID,1006.42,VALID,0,INVALID,113.228,VALID,0,VALID,22.8048,VALID,46,VALID,0,
2010-08-12, 02:30:04,VALID,1006.42,VALID,0,INVALID,113.091,VALID,0,VALID,22.8455,VALID,46,VALID,0,
2010-08-12, 02:31:04,VALID,1006.39,VALID,0,INVALID,113.098,VALID,0.100563,VALID,22.8048,VALID,46,VALID,0,
2010-08-12, 02:32:04,VALID,1006.38,VALID,0,INVALID,112.961,VALID,0,VALID,22.8649,VALID,46,VALID,0,
2010-08-12, 02:33:04,VALID,1006.36,VALID,0,INVALID,113.007,VALID,0,VALID,22.8455,VALID,46,VALID,0,
2010-08-12, 02:34:04,VALID,1006.37,VALID,0,INVALID,113.007,VALID,0,VALID,22.826,VALID,46,VALID,0,
2010-08-12, 02:35:04,VALID,1006.34,VALID,0,INVALID,112.93,VALID,0,VALID,22.8455,VALID,46,VALID,0,
2010-08-12, 02:36:04,VALID,1006.34,VALID,0,INVALID,112.869,VALID,0,VALID,22.8649,VALID,46,VALID,0,
2010-08-12, 02:37:04,VALID,1006.35,VALID,0,INVALID,112.824,VALID,0,VALID,22.8438,VALID,46,VALID,0,
2010-08-12, 02:38:04,VALID,1006.34,VALID,0,INVALID,112.785,VALID,0,VALID,22.8844,VALID,46,VALID,0,
2010-08-12, 02:39:04,VALID,1006.3,VALID,0,INVALID,112.701,VALID,0,VALID,22.8827,VALID,46,VALID,0,
2010-08-12, 02:40:04,VALID,1006.29,VALID,0,INVALID,112.732,VALID,0,VALID,22.8844,VALID,46,VALID,0,
2010-08-12, 02:41:04,VALID,1006.32,VALID,0,INVALID,112.717,VALID,0,VALID,22.8844,VALID,46,VALID,0,
2010-08-12, 02:42:04,VALID,1006.32,VALID,0,INVALID,112.755,VALID,0,VALID,22.8844,VALID,46,VALID,0,
2010-08-12, 02:43:04,VALID,1006.33,VALID,0,INVALID,112.671,VALID,0,VALID,22.8649,VALID,46,VALID,0,
2010-08-12, 02:44:04,VALID,1006.32,VALID,0,INVALID,112.618,VALID,0,VALID,22.8827,VALID,46,VALID,0,
2010-08-12, 02:45:04,VALID,1006.32,VALID,0,INVALID,112.618,VALID,0,VALID,22.8827,VALID,46,VALID,0,
2010-08-12, 02:46:04,VALID,1006.29,VALID,0,INVALID,112.579,VALID,0,VALID,22.9039,VALID,46,VALID,0,
2010-08-12, 02:47:04,VALID,1006.3,VALID,0,INVALID,112.587,VALID,0,VALID,22.8632,VALID,46,VALID,0,
2010-08-12, 02:48:04,VALID,1006.29,VALID,0,INVALID,112.648,VALID,0,VALID,22.8632,VALID,46,VALID,0,
2010-08-12, 02:49:04,VALID,1006.3,VALID,0,INVALID,112.679,VALID,0,VALID,22.8649,VALID,46,VALID,0,
2010-08-12, 02:50:04,VALID,1006.28,VALID,0,INVALID,112.549,VALID,0,VALID,22.8827,VALID,46,VALID,0,
2010-08-12, 02:51:04,VALID,1006.3,VALID,0,INVALID,112.518,VALID,0.100563,VALID,22.9233,VALID,46,VALID,0,
2010-08-12, 02:52:04,VALID,1006.28,VALID,0,INVALID,112.511,VALID,0,VALID,22.9021,VALID,46,VALID,0,
2010-08-12, 02:53:04,VALID,1006.27,VALID,0,INVALID,112.335,VALID,0,VALID,22.9834,VALID,46,VALID,0,
2010-08-12, 02:54:04,VALID,1006.28,VALID,0,INVALID,112.259,VALID,0,VALID,23.0012,VALID,46,VALID,0,
2010-08-12, 02:55:04,VALID,1006.28,VALID,0,INVALID,112.351,VALID,0,VALID,22.9605,VALID,46,VALID,0,
2010-08-12, 02:56:04,VALID,1006.31,VALID,0,INVALID,112.457,VALID,0,VALID,22.9428,VALID,46,VALID,0,
2010-08-12, 02:57:04,VALID,1006.27,VALID,0,INVALID,112.48,VALID,0,VALID,22.9233,VALID,46,VALID,0,
2010-08-12, 02:58:04,VALID,1006.27,VALID,0,INVALID,112.511,VALID,0,VALID,22.9233,VALID,46,VALID,0,
2010-08-12, 02:59:04,VALID,1006.28,VALID,0,INVALID,112.61,VALID,0,VALID,22.8844,VALID,46,VALID,0,
2010-08-12, 03:00:04,VALID,1006.27,VALID,0,INVALID,112.663,VALID,0,VALID,22.8438,VALID,46,VALID,0,
2010-08-12, 03:01:04,VALID,1006.27,VALID,0,INVALID,112.579,VALID,0,VALID,22.8438,VALID,45,VALID,0,
2010-08-12, 03:02:04,VALID,1006.26,VALID,0,INVALID,112.534,VALID,0,VALID,22.8649,VALID,42,VALID,0,
2010-08-12, 03:03:04,VALID,1006.23,VALID,0,INVALID,112.595,VALID,0,VALID,22.8861,VALID,42,VALID,0,
2010-08-12, 03:04:04,VALID,1006.28,VALID,0,INVALID,112.564,VALID,0,VALID,22.8649,VALID,42,VALID,0,
2010-08-12, 03:05:04,VALID,1006.28,VALID,0,INVALID,112.587,VALID,0,VALID,22.8455,VALID,42,VALID,0,
2010-08-12, 03:06:04,VALID,1006.28,VALID,0,INVALID,112.648,VALID,0,VALID,22.826,VALID,42,VALID,0,
2010-08-12, 03:07:04,VALID,1006.28,VALID,0,INVALID,112.671,VALID,0,VALID,22.8066,VALID,42,VALID,0,
2010-08-12, 03:08:04,VALID,1006.32,VALID,0,INVALID,112.61,VALID,0,VALID,22.8066,VALID,42,VALID,0,
2010-08-12, 03:09:04,VALID,1006.32,VALID,0,INVALID,112.503,VALID,0,VALID,22.8455,VALID,42,VALID,0,
2010-08-12, 03:10:04,VALID,1006.33,VALID,0,INVALID,112.442,VALID,0,VALID,22.8632,VALID,42,VALID,0,
2010-08-12, 03:11:04,VALID,1006.33,VALID,0,INVALID,112.427,VALID,0,VALID,22.8844,VALID,42,VALID,0,
2010-08-12, 03:12:04,VALID,1006.33,VALID,0,INVALID,112.396,VALID,0,VALID,22.8844,VALID,42,VALID,0,
2010-08-12, 03:13:04,VALID,1006.32,VALID,0,INVALID,112.373,VALID,0,VALID,22.9039,VALID,42,VALID,0,
2010-08-12, 03:14:04,VALID,1006.35,VALID,0,INVALID,112.289,VALID,0,VALID,22.9251,VALID,42,VALID,0,
2010-08-12, 03:15:04,VALID,1006.33,VALID,0,INVALID,112.198,VALID,0,VALID,22.9605,VALID,42,VALID,0,
2010-08-12, 03:16:04,VALID,1006.32,VALID,0,INVALID,112.114,VALID,0,VALID,22.98,VALID,42,VALID,0,
2010-08-12, 03:17:04,VALID,1006.31,VALID,0,INVALID,112.022,VALID,0.100563,VALID,23.0401,VALID,42,VALID,0,
2010-08-12, 03:18:04,VALID,1006.32,VALID,0,INVALID,111.984,VALID,0,VALID,23.0595,VALID,42,VALID,0,
2010-08-12, 03:19:04,VALID,1006.33,VALID,0,INVALID,111.954,VALID,0,VALID,23.079,VALID,42,VALID,0,
2010-08-12, 03:20:04,VALID,1006.32,VALID,0,INVALID,111.984,VALID,0,VALID,23.0578,VALID,42,VALID,0,
2010-08-12, 03:21:04,VALID,1006.3,VALID,0,INVALID,111.977,VALID,0,VALID,23.079,VALID,42,VALID,0,
2010-08-12, 03:22:04,VALID,1006.27,VALID,0,INVALID,111.954,VALID,0,VALID,23.079,VALID,42,VALID,0,
2010-08-12, 03:23:04,VALID,1006.27,VALID,0,INVALID,111.878,VALID,0,VALID,23.1179,VALID,42,VALID,0,
2010-08-12, 03:24:04,VALID,1006.25,VALID,0,INVALID,111.755,VALID,0,VALID,23.1356,VALID,42,VALID,0,
2010-08-12, 03:25:04,VALID,1006.24,VALID,0,INVALID,111.748,VALID,0,VALID,23.178,VALID,42,VALID,0,
2010-08-12, 03:26:04,VALID,1006.22,VALID,0,INVALID,111.778,VALID,0,VALID,23.178,VALID,42,VALID,0,
2010-08-12, 03:27:04,VALID,1006.2,VALID,0,INVALID,111.794,VALID,0,VALID,23.1763,VALID,42,VALID,0,
2010-08-12, 03:28:04,VALID,1006.21,VALID,0,INVALID,111.763,VALID,0,VALID,23.1975,VALID,42,VALID,0,
2010-08-12, 03:29:04,VALID,1006.18,VALID,0,INVALID,111.816,VALID,0,VALID,23.178,VALID,42,VALID,0,
2010-08-12, 03:30:04,VALID,1006.18,VALID,0,INVALID,111.984,VALID,0,VALID,23.1179,VALID,42,VALID,0,
2010-08-12, 03:31:04,VALID,1006.21,VALID,0,INVALID,112.106,VALID,0,VALID,23.0595,VALID,42,VALID,0,
2010-08-12, 03:32:04,VALID,1006.19,VALID,0,INVALID,112.167,VALID,0,VALID,23.0401,VALID,42,VALID,0,
2010-08-12, 03:33:04,VALID,1006.18,VALID,0,INVALID,112.16,VALID,0,VALID,23.0418,VALID,42,VALID,0,
2010-08-12, 03:34:04,VALID,1006.2,VALID,0,INVALID,112.16,VALID,0,VALID,23.0224,VALID,42,VALID,0,
2010-08-12, 03:35:04,VALID,1006.2,VALID,0,INVALID,112.022,VALID,0,VALID,23.079,VALID,42,VALID,0,
2010-08-12, 03:36:04,VALID,1006.18,VALID,0,INVALID,111.954,VALID,0,VALID,23.1391,VALID,42,VALID,0,
2010-08-12, 03:37:04,VALID,1006.18,VALID,0,INVALID,111.87,VALID,0,VALID,23.1586,VALID,42,VALID,0,
2010-08-12, 03:38:04,VALID,1006.19,VALID,0,INVALID,111.916,VALID,0,VALID,23.1586,VALID,42,VALID,0,
2010-08-12, 03:39:04,VALID,1006.2,VALID,0,INVALID,111.923,VALID,0,VALID,23.1586,VALID,42,VALID,0,
2010-08-12, 03:40:04,VALID,1006.23,VALID,0,INVALID,111.977,VALID,0,VALID,23.1374,VALID,42,VALID,0,
2010-08-12, 03:41:04,VALID,1006.22,VALID,0,INVALID,112.015,VALID,0,VALID,23.1179,VALID,42,VALID,0,
2010-08-12, 03:42:04,VALID,1006.24,VALID,0,INVALID,112.076,VALID,0,VALID,23.0984,VALID,42,VALID,0,
2010-08-12, 03:43:04,VALID,1006.25,VALID,0,INVALID,112.206,VALID,0,VALID,23.0383,VALID,42,VALID,0,
2010-08-12, 03:44:04,VALID,1006.22,VALID,0,INVALID,112.312,VALID,0,VALID,23.0206,VALID,42,VALID,0,
2010-08-12, 03:45:04,VALID,1006.23,VALID,0,INVALID,112.228,VALID,0,VALID,23.0206,VALID,42,VALID,0,
2010-08-12, 03:46:04,VALID,1006.22,VALID,0,INVALID,112.396,VALID,0,VALID,22.9817,VALID,42,VALID,0,
2010-08-12, 03:47:04,VALID,1006.18,VALID,0,INVALID,112.404,VALID,0,VALID,22.9622,VALID,42,VALID,0,
2010-08-12, 03:48:04,VALID,1006.21,VALID,0,INVALID,112.427,VALID,0,VALID,22.9428,VALID,42,VALID,0,